Theta_e
304 299 299 300 297 294 294 288 282 280 278 274 274 275 276 280 280 279 279 280 279 283 284 284 284 284 283 282 283 283 283 280 279 275 278 282 288 292 292 296 298 297 298 299 298 301 302 314 315 317 317 317 316 316 316 315 315 315 315 315 315 314 314 315 314 315 314 314 314 314 315 315 315 316 316 316 316 316 317 317 317 317 318 316 317 316 316 316 315 316 315 316 317 316 316 315 315
299 297 300 300 296 289 286 284 278 275 276 277 275 274 278 278 278 278 279 280 280 283 284 284 285 285 285 285 284 283 282 285 283 286 286 289 291 293 294 298 297 298 298 298 298 299 301 304 314 316 316 316 316 316 315 315 315 314 314 315 314 314 314 314 314 314 314 313 314 314 314 314 315 315 316 316 316 316 316 316 316 316 317 317 317 318 317 316 316 316 316 316 316 316 316 316 314
299 297 293 298 296 290 286 283 278 274 275 273 274 276 279 278 279 279 281 282 283 284 283 283 283 283 283 283 282 280 280 286 285 286 287 290 292 292 296 296 297 298 298 297 297 298 300 307 313 314 316 316 315 315 315 315 314 314 314 314 314 313 314 314 313 314 313 313 312 313 313 313 314 315 315 315 315 315 315 314 315 315 315 316 316 316 316 315 315 315 315 315 315 316 315 314 313
300 299 296 295 289 288 280 277 274 271 274 273 274 278 279 278 279 280 282 283 283 282 283 284 283 285 282 281 282 284 283 286 288 288 288 291 289 292 294 298 303 297 298 297 296 297 299 308 312 313 314 315 315 315 315 315 315 314 314 314 314 314 313 313 312 312 312 312 312 312 312 312 312 314 314 315 314 314 314 314 314 314 314 314 314 314 315 315 314 314 313 313 314 315 314 313 312
300 301 297 292 287 284 280 276 273 272 274 273 274 275 279 279 280 281 283 282 283 282 282 283 282 285 285 283 284 282 283 286 288 288 289 288 290 291 296 299 297 297 298 297 296 298 297 311 310 312 313 314 315 315 315 315 315 314 314 314 313 313 313 312 312 312 312 312 312 312 312 312 312 312 313 314 315 315 314 314 314 314 314 313 314 314 314 314 313 312 312 312 313 314 313 312 311
299 300 299 294 286 284 282 277 277 276 276 273 275 278 280 278 281 280 282 282 282 281 281 283 283 283 284 285 285 284 285 285 289 288 288 291 293 292 298 302 296 298 297 294 296 295 296 314 309 311 312 313 314 314 314 314 314 314 313 313 313 313 312 312 312 311 311 311 312 312 312 311 311 311 312 312 314 314 314 314 314 314 314 314 314 314 314 313 313 312 312 312 312 312 312 311 310
295 294 291 292 288 286 277 275 276 275 278 277 278 280 281 281 280 280 281 281 282 284 283 286 283 283 282 284 286 288 287 292 288 291 291 293 293 296 299 297 297 296 296 294 295 296 297 309 309 310 312 312 313 313 312 313 313 312 312 312 312 312 312 312 312 312 311 311 311 311 311 311 311 310 311 311 312 313 314 313 313 313 313 312 312 312 312 311 311 311 310 310 311 311 311 310 310
297 291 288 285 280 280 277 276 276 275 279 280 281 281 281 282 280 281 281 282 282 283 284 283 282 281 282 285 282 287 286 288 292 292 292 292 294 295 296 296 296 295 296 295 295 297 310 310 308 309 310 311 312 312 311 312 312 312 312 311 311 311 311 311 311 311 311 310 310 311 311 310 310 310 310 309 310 311 313 313 313 313 312 312 312 312 312 311 311 310 309 309 309 310 310 309 309
294 292 288 287 279 278 275 275 277 278 280 280 282 282 290 281 281 279 280 281 283 280 281 282 282 281 281 282 281 285 285 289 290 294 294 292 294 295 297 295 295 296 296 296 296 296 296 315 308 308 308 310 310 310 310 310 310 309 310 310 310 311 311 311 311 311 311 310 309 309 309 309 309 309 309 309 310 310 311 311 311 311 311 311 311 311 311 310 309 309 310 309 309 308 308 308 308
289 288 281 280 278 277 276 274 275 278 279 280 281 283 282 282 281 281 281 282 282 282 283 282 281 280 281 283 281 286 290 290 292 293 292 292 293 294 295 297 296 296 295 296 295 296 297 311 309 307 307 308 309 309 309 309 309 309 309 309 309 309 309 310 310 310 309 309 309 308 308 308 308 308 308 308 309 309 309 310 310 310 310 310 310 310 310 309 309 308 308 309 308 308 307 307 306
282 285 285 282 277 275 275 276 277 279 280 279 280 281 281 281 280 280 281 282 281 282 284 282 283 281 281 282 282 286 287 289 292 291 292 293 292 293 294 295 296 295 296 296 296 296 296 298 309 308 306 308 307 307 308 308 308 308 308 308 307 307 307 308 309 309 308 308 307 306 306 306 307 306 307 306 308 308 308 309 310 310 310 310 310 310 309 309 309 309 309 308 307 307 307 307 307
284 281 283 277 276 274 276 275 278 278 280 280 283 283 283 283 282 281 281 282 282 282 283 283 284 282 281 280 283 286 285 290 291 291 292 292 291 293 294 293 295 295 295 295 296 297 296 296 295 306 308 306 306 306 307 307 307 307 307 306 306 306 305 305 306 307 307 306 306 305 304 304 305 304 304 304 305 306 306 307 308 309 309 309 309 309 309 309 309 309 308 308 307 306 305 305 305
287 283 282 279 276 276 277 275 276 281 275 278 281 284 284 283 282 281 280 280 280 280 283 285 283 285 281 282 283 283 288 290 291 291 292 292 292 291 293 292 294 294 295 298 295 296 295 295 294 297 304 308 307 306 305 305 306 306 305 305 305 305 304 303 303 304 305 304 304 304 303 301 301 302 301 302 302 305 304 304 306 308 307 307 308 308 308 309 308 307 307 306 306 305 304 304 304
285 281 281 278 276 275 275 277 276 277 278 281 280 282 283 283 282 280 281 281 281 281 285 284 285 284 283 282 279 280 284 288 290 291 291 292 291 291 292 291 292 293 294 295 296 296 295 295 296 294 297 295 294 302 304 305 305 305 304 304 303 303 303 302 301 301 302 302 302 302 301 299 298 300 299 300 300 302 302 302 303 306 306 305 306 307 307 307 307 307 306 306 304 303 302 302 302
286 282 279 277 275 275 276 277 278 274 278 281 285 284 282 284 281 280 282 280 283 284 287 287 286 285 280 282 279 281 286 287 290 292 292 291 292 291 292 292 292 292 292 292 294 294 296 294 295 294 296 293 293 291 290 294 303 304 303 303 302 302 301 301 300 299 298 300 299 300 299 297 296 297 298 297 298 299 301 299 300 303 305 304 304 305 305 305 306 305 305 304 303 302 301 299 299
285 282 278 277 276 275 277 277 275 276 279 281 283 281 282 284 281 284 284 285 283 285 285 286 287 286 283 283 286 287 287 286 289 291 291 292 291 292 291 291 291 291 291 293 293 294 294 294 294 293 292 292 291 290 291 290 299 303 303 302 301 300 300 299 299 297 296 296 297 297 296 295 294 291 296 293 296 296 298 297 298 300 302 302 302 303 303 304 304 304 304 302 302 300 298 297 297
285 285 279 274 277 277 278 278 277 277 278 280 280 282 283 281 284 284 284 284 286 285 282 285 287 287 282 284 286 285 286 292 294 290 292 291 289 289 289 290 291 291 293 292 292 293 293 293 294 293 292 292 291 290 291 290 292 301 303 300 300 301 299 299 297 295 295 294 295 295 294 288 284 283 286 287 293 291 295 296 297 297 299 300 299 300 300 301 301 302 301 300 299 298 295 293 294
283 280 277 279 275 277 279 278 278 280 280 282 283 280 281 282 283 285 285 283 279 283 284 283 285 285 285 283 285 287 286 289 289 290 289 289 289 288 288 289 288 291 291 292 292 292 292 293 293 293 292 292 291 292 292 292 292 299 294 288 290 294 297 300 293 290 294 284 296 288 286 289 285 283 286 293 287 290 290 295 295 295 296 297 297 297 298 299 299 299 299 298 297 295 293 282 283
280 276 278 279 275 281 280 278 279 282 283 281 280 279 282 283 283 284 283 281 279 282 282 281 283 284 284 285 285 288 288 287 289 289 288 289 288 288 289 289 289 289 290 291 292 293 293 294 293 293 293 292 291 290 292 292 293 290 290 289 290 298 297 295 288 291 282 283 285 284 290 286 285 284 288 290 290 292 291 293 293 293 293 294 294 293 294 295 296 297 297 296 294 293 283 279 280
280 280 278 280 278 281 279 280 281 280 282 281 281 281 282 283 283 283 284 280 279 281 280 282 282 284 283 283 285 287 287 287 288 289 289 288 288 288 288 289 289 289 291 292 293 293 292 293 294 293 293 292 291 291 292 292 291 291 291 288 288 288 286 291 286 285 284 283 283 286 285 287 284 281 292 292 291 283 283 290 292 291 291 290 292 287 291 291 293 292 293 293 288 285 280 280 280
283 280 275 281 279 280 282 279 280 279 282 280 280 281 283 283 283 283 280 281 278 279 280 285 283 283 285 283 284 287 286 286 286 288 288 288 288 289 289 290 291 291 291 290 292 293 293 293 293 293 293 292 291 291 294 291 291 291 289 287 287 286 285 285 285 284 284 283 282 286 284 286 282 281 281 281 280 280 280 280 280 280 281 279 290 279 281 281 282 279 280 283 279 280 280 280 280
281 279 280 280 278 280 282 279 280 279 279 279 280 284 283 282 283 280 281 281 280 278 283 283 285 285 284 284 285 285 285 286 287 287 288 288 289 289 289 289 289 289 289 290 291 292 292 293 293 294 293 293 292 292 292 294 296 290 289 287 286 286 286 285 285 285 284 283 283 285 289 281 281 280 280 280 280 280 280 280 280 280 279 280 283 280 280 280 280 279 280 280 280 279 280 280 280
282 279 278 279 278 281 281 281 280 279 280 279 281 282 282 282 281 278 280 283 282 281 282 283 285 286 285 286 285 285 285 286 287 287 288 288 288 288 289 290 290 290 290 291 292 292 293 291 293 293 293 293 292 292 291 292 293 290 288 287 287 286 285 284 284 284 284 283 283 286 287 283 281 280 281 279 280 280 280 280 280 279 279 279 282 280 280 280 279 280 279 280 279 279 280 280 279
283 279 279 281 279 282 280 282 279 278 280 281 280 283 284 280 282 280 280 283 286 285 280 281 281 283 285 285 286 287 287 287 287 289 289 289 289 290 290 290 290 289 288 290 290 291 293 293 292 292 293 293 293 291 291 291 291 290 288 293 293 290 289 286 284 283 285 285 285 284 291 282 281 281 280 280 280 279 281 280 279 280 280 279 281 281 280 279 279 279 280 279 280 280 280 280 280
281 280 280 282 280 280 278 277 277 279 279 280 281 283 283 280 281 280 282 285 285 285 283 282 281 282 283 284 285 286 286 286 287 288 288 288 288 290 289 289 289 288 289 290 291 290 292 293 292 292 293 294 293 292 292 291 290 290 289 289 289 295 291 287 285 285 285 285 285 286 289 283 282 281 281 281 280 280 280 280 280 280 280 280 281 280 280 280 280 279 279 279 279 279 279 280 281
280 281 280 280 281 280 280 280 278 278 281 281 283 281 278 279 279 282 287 287 286 283 283 282 281 282 282 284 286 286 286 287 287 287 288 289 288 287 289 289 289 289 290 291 291 291 292 291 292 293 293 293 294 292 292 290 291 290 290 289 289 294 290 289 285 284 284 283 283 285 285 286 283 282 281 280 280 281 280 280 281 280 279 280 280 280 280 280 280 280 279 280 279 279 280 280 282
279 280 280 281 281 281 281 282 281 280 282 280 283 280 281 280 283 282 279 280 280 282 282 281 281 282 283 284 285 285 286 287 287 288 287 287 287 287 289 289 288 290 291 290 291 292 293 292 292 293 293 296 293 292 292 292 291 291 291 289 288 290 289 290 288 285 283 283 284 284 284 286 286 282 281 281 280 280 280 280 280 280 279 280 280 280 279 281 280 279 280 279 279 280 280 280 280
282 282 281 281 279 282 282 280 281 282 284 281 282 282 279 280 282 283 287 281 281 282 281 281 280 282 283 283 284 285 286 287 287 286 287 287 288 288 288 289 290 290 289 290 292 293 291 291 292 292 293 293 295 293 294 292 291 291 291 289 289 289 289 288 286 286 287 283 284 283 283 283 287 284 282 281 281 281 281 280 280 279 280 280 280 279 280 280 280 280 280 280 280 280 280 280 280
282 282 281 280 276 283 280 282 282 282 283 282 282 282 280 281 280 286 284 280 283 281 281 280 281 282 281 281 283 283 285 286 285 285 287 288 289 289 289 290 290 290 291 292 292 291 292 292 291 292 292 292 294 293 293 293 292 291 291 290 289 290 288 289 287 286 285 285 284 283 283 283 286 285 283 283 286 283 281 280 280 282 281 280 279 280 281 279 279 279 280 280 280 281 280 280 281
281 280 278 278 276 278 281 281 281 283 283 279 281 278 277 276 283 286 281 281 281 282 281 281 282 281 281 280 282 283 284 284 285 287 288 288 288 288 289 290 291 290 292 290 290 291 293 293 293 293 292 292 293 293 293 292 292 291 291 289 291 289 287 287 288 286 286 286 285 284 283 283 286 284 283 282 281 280 280 280 280 280 280 280 280 280 279 279 279 279 280 280 282 281 279 279 280
281 280 278 277 278 280 279 281 281 283 282 280 284 280 278 279 279 279 279 280 282 282 283 282 282 281 281 281 281 283 284 285 286 287 287 288 288 288 289 290 289 290 291 290 290 292 292 292 293 292 295 292 294 294 294 293 292 292 291 289 288 288 288 287 286 287 285 285 284 283 284 284 285 284 283 283 282 281 280 280 281 280 280 281 280 280 279 279 279 279 280 279 279 279 279 280 280
277 281 277 274 279 277 277 281 281 283 284 281 282 277 280 283 284 281 279 280 280 282 283 282 281 282 282 281 282 283 285 285 285 285 286 287 288 288 288 289 290 289 290 291 291 292 291 291 291 292 291 293 292 293 293 293 293 291 290 292 289 287 288 287 286 286 286 284 285 284 283 284 285 284 284 283 282 282 281 281 281 281 280 281 280 279 281 280 280 280 280 279 279 279 280 279 280
275 280 277 281 278 275 279 281 278 282 281 282 281 279 279 281 281 281 278 281 280 281 282 282 281 281 282 282 282 283 284 285 285 286 286 287 287 288 288 289 289 290 290 290 290 290 290 291 293 291 292 292 293 292 292 291 291 291 290 289 289 287 287 287 286 286 285 285 284 283 284 285 285 284 284 283 283 282 281 282 281 280 281 280 279 279 279 281 279 280 279 281 279 278 278 279 280
277 276 280 276 280 278 278 278 281 280 282 282 280 280 280 281 282 282 280 280 279 280 282 283 282 282 282 282 282 282 283 284 285 287 288 287 288 287 288 291 290 289 289 290 290 290 291 291 290 291 291 292 292 292 291 291 291 289 289 288 290 288 287 287 286 285 286 284 284 284 284 284 286 284 283 283 282 283 282 281 281 280 280 280 280 279 279 279 278 279 279 279 280 279 279 279 279
279 279 279 279 276 276 277 279 282 281 279 281 279 278 281 284 285 284 284 280 280 282 283 284 283 281 282 282 282 282 283 283 286 288 287 287 286 287 287 288 288 288 289 289 289 289 289 290 290 291 293 291 290 290 290 289 289 287 286 286 286 287 287 286 285 285 285 285 284 285 284 285 286 284 284 283 283 282 282 282 282 281 281 280 279 279 279 280 281 278 278 278 279 279 279 279 279
279 276 275 276 280 278 278 277 277 280 280 279 277 280 282 283 284 285 281 278 279 282 281 281 281 281 281 281 282 282 283 284 287 287 286 286 286 287 287 287 287 287 287 288 289 288 288 288 288 289 290 290 290 289 289 288 287 288 288 286 286 288 287 287 286 286 285 284 286 285 285 284 284 286 283 283 283 284 282 282 281 281 280 280 280 280 280 279 278 278 278 280 280 280 280 279 278
277 276 275 277 277 276 276 277 280 279 281 278 279 278 279 281 283 284 284 280 278 280 281 282 282 283 283 283 283 283 283 285 286 286 286 286 287 287 287 286 286 285 286 286 286 287 288 288 288 289 289 289 291 289 288 288 288 286 285 287 289 288 287 286 288 287 286 286 286 285 285 285 284 283 285 283 283 284 284 282 281 280 280 281 280 281 279 279 279 280 280 279 280 278 278 278 279
278 278 280 280 277 279 282 282 280 279 281 277 276 276 280 282 284 285 281 278 281 282 281 282 283 283 283 283 283 284 285 284 285 286 287 285 285 286 286 286 288 286 287 285 286 288 287 287 288 289 289 289 290 290 290 289 288 287 287 287 287 287 287 287 287 286 286 287 286 285 285 285 284 284 285 283 284 282 282 281 281 281 280 280 281 281 280 283 281 279 279 278 278 279 277 278 279
278 282 278 282 278 277 278 280 279 280 282 279 276 279 283 285 285 285 281 282 281 281 283 283 284 283 283 283 283 284 283 285 284 285 285 285 286 286 285 286 286 286 286 285 285 285 285 286 287 288 288 289 289 291 289 290 289 289 288 286 287 285 285 286 286 287 287 286 285 285 286 285 284 284 283 285 284 283 282 282 282 281 280 281 281 280 279 279 279 279 278 278 278 278 279 280 278
279 280 283 280 278 280 279 278 280 281 280 279 277 280 284 285 282 282 283 282 280 279 280 282 283 284 284 284 284 284 283 283 284 285 285 286 285 286 286 287 287 286 287 286 286 286 287 289 286 287 288 288 289 290 294 290 289 288 289 286 285 287 287 288 285 284 284 284 285 284 285 285 284 284 283 282 284 283 282 282 282 281 280 280 280 280 279 279 279 278 278 279 278 277 277 276 279
279 279 279 279 280 281 280 279 279 279 279 279 279 280 280 277 281 285 284 279 281 280 280 281 281 282 283 283 282 283 284 284 285 285 285 285 286 287 287 288 286 287 287 287 287 287 289 288 288 287 287 288 289 291 292 290 289 287 286 286 287 286 286 284 285 286 285 286 286 285 286 284 284 284 283 283 284 283 282 282 281 281 280 279 280 279 279 279 279 278 278 279 278 277 277 276 277
276 277 280 281 279 281 278 278 280 276 277 280 280 277 274 276 277 279 283 280 283 280 281 284 284 282 281 283 284 284 284 284 285 285 286 286 286 286 286 286 287 287 288 288 287 288 287 288 287 287 286 287 289 288 289 291 291 289 286 287 286 286 286 285 287 288 287 284 285 283 283 284 284 283 283 283 282 284 282 281 281 280 280 280 281 280 279 279 278 279 278 278 277 277 277 277 276
280 282 279 279 279 279 279 278 280 277 279 280 278 279 275 278 278 281 279 278 283 283 281 283 283 283 281 284 285 285 285 284 283 284 285 284 286 286 288 288 287 288 289 287 287 287 287 288 287 287 287 287 287 288 288 292 288 288 288 289 288 288 287 287 284 285 286 285 284 284 284 283 283 283 283 282 282 282 282 281 280 280 280 280 282 280 279 279 279 278 279 277 277 280 277 276 277
280 280 277 279 281 280 279 278 279 277 276 280 278 275 276 278 281 278 278 279 282 283 285 284 284 283 283 283 283 284 284 283 284 285 285 284 284 286 289 289 288 288 287 286 287 287 287 287 287 287 287 290 288 288 287 291 289 288 287 286 288 287 287 288 286 285 284 285 284 284 283 284 283 283 283 282 282 281 283 281 280 280 280 279 281 281 280 279 280 280 281 278 278 279 277 277 276
281 279 279 281 280 279 277 279 279 278 278 278 276 279 278 275 279 278 279 284 283 285 286 286 285 284 283 282 283 283 283 283 284 286 286 288 288 287 287 288 289 287 287 287 287 287 286 286 287 286 287 287 287 286 288 287 290 289 288 287 286 288 287 287 287 286 285 284 284 283 283 283 283 282 282 282 281 281 283 283 280 280 280 280 282 281 280 279 279 278 278 278 277 278 277 278 277
281 280 279 279 278 277 279 278 281 275 277 274 278 278 276 277 277 278 278 282 282 284 286 287 286 285 284 284 284 283 281 282 283 284 286 286 287 287 287 286 287 288 286 287 287 286 286 285 287 287 286 286 286 285 287 286 287 289 286 286 286 286 286 286 284 284 284 283 284 282 282 283 283 283 282 281 281 281 281 281 282 280 280 280 283 280 279 279 279 278 278 278 278 277 277 278 278
279 281 283 279 277 277 276 275 276 274 272 273 276 275 278 276 279 280 284 285 285 286 283 283 282 283 283 282 283 285 285 284 285 284 284 286 285 285 286 287 288 287 286 286 286 286 285 285 285 286 285 285 285 285 284 286 285 286 287 286 286 286 284 284 284 284 282 282 282 282 282 282 282 282 281 282 280 280 280 282 281 280 280 282 283 281 279 279 279 279 278 278 278 277 277 277 278
281 280 282 278 279 276 277 269 272 272 267 271 275 277 276 275 276 277 283 282 280 285 286 288 287 287 287 285 284 284 284 285 285 285 287 286 287 287 286 287 287 287 287 286 285 285 285 284 284 285 285 285 285 285 284 284 284 284 285 285 285 285 284 284 284 284 283 283 282 283 282 282 282 282 282 281 282 281 281 280 281 280 281 280 279 279 279 279 279 279 278 278 278 277 277 278 277
280 278 276 276 273 270 273 265 275 270 271 279 276 276 276 277 284 283 281 283 285 283 286 288 288 288 287 285 285 285 285 284 286 287 287 287 288 288 287 286 286 287 287 287 286 285 285 284 284 285 285 283 284 283 284 283 283 283 284 283 284 284 283 284 282 283 282 283 282 281 282 282 282 282 281 282 282 280 281 280 280 280 280 280 281 279 279 279 278 278 278 278 277 277 277 277 277
279 280 274 273 269 262 266 258 262 268 274 277 276 275 278 279 283 285 288 290 287 286 285 285 284 286 287 287 285 284 285 285 287 288 288 288 288 287 287 286 285 285 285 285 286 285 285 284 284 284 285 283 283 283 283 283 283 283 283 283 282 285 283 282 282 283 282 281 282 282 282 282 282 281 280 280 281 280 280 280 280 279 280 279 281 280 279 279 278 278 278 278 277 277 277 277 277
281 277 280 275 267 273 268 264 272 273 274 276 274 274 274 277 283 285 283 283 281 280 281 281 282 282 281 281 283 283 283 285 286 287 288 288 288 287 287 286 285 284 285 285 284 283 283 283 283 284 284 284 283 283 283 283 283 283 283 283 283 283 284 283 282 283 282 282 281 282 281 280 281 280 280 281 280 279 280 280 280 279 279 279 279 279 280 279 279 280 279 278 278 277 277 277 277
278 278 279 275 274 274 276 263 268 266 269 271 272 276 277 282 282 286 282 282 284 281 282 281 283 282 281 283 285 286 287 287 287 287 287 287 287 286 286 285 285 285 285 283 284 283 283 283 282 283 283 283 282 284 283 282 282 282 282 282 283 285 285 284 284 283 281 281 281 282 281 280 280 280 280 279 280 279 280 280 279 279 278 279 279 279 278 278 278 278 278 278 277 279 277 277 277
279 279 276 279 277 274 268 269 268 269 267 273 268 278 280 282 284 281 279 282 285 283 283 282 284 282 281 284 285 286 287 287 287 287 288 288 286 286 286 286 285 284 284 285 285 284 284 284 283 283 283 282 283 283 282 282 282 281 281 281 281 282 282 282 282 281 281 280 281 281 280 280 279 279 280 280 279 279 279 279 279 279 279 279 278 278 278 278 278 278 277 277 277 277 278 277 277
279 276 276 279 277 275 276 273 266 262 267 273 272 275 278 277 283 282 282 282 285 283 283 282 282 281 282 285 286 287 288 288 287 287 287 287 288 288 287 286 286 287 286 285 285 283 282 283 283 283 282 283 283 282 282 282 282 281 281 280 280 281 281 281 281 281 281 281 280 280 279 280 279 280 279 280 278 278 279 280 278 278 278 278 278 278 277 277 278 277 277 277 277 277 277 277 277
281 279 281 281 272 276 272 270 268 268 268 268 273 272 274 277 282 282 283 281 286 286 284 283 285 285 285 286 286 286 286 286 287 287 287 287 287 288 287 287 286 285 285 285 284 283 282 282 281 282 283 282 282 282 282 281 281 281 281 280 280 280 280 281 280 281 280 280 280 279 279 279 279 279 279 278 278 278 278 278 278 277 278 277 277 277 277 277 277 277 278 277 277 277 277 276 277
277 279 279 278 277 270 271 273 269 272 267 268 274 269 281 279 278 279 286 285 285 285 283 285 287 288 288 287 287 287 287 287 288 288 288 289 288 287 287 287 286 285 285 284 283 282 283 282 282 281 281 281 281 281 281 280 281 280 280 280 280 280 280 280 280 280 280 280 279 279 279 279 279 279 278 278 278 278 278 277 277 277 277 276 276 277 276 276 276 276 276 277 276 276 276 276 276
277 278 273 274 275 277 278 272 274 275 263 264 263 273 277 281 280 281 286 287 285 284 286 287 288 288 287 287 287 287 287 288 288 289 289 289 288 287 286 285 285 284 283 282 283 283 283 282 282 282 283 281 281 281 280 280 280 280 280 280 280 280 280 280 280 280 280 279 279 279 278 279 278 278 278 278 278 277 277 277 277 277 276 276 276 276 276 276 276 276 276 276 276 276 275 275 276
276 278 276 278 275 275 272 275 271 267 272 271 263 275 279 287 283 286 287 286 283 282 284 286 287 287 287 288 287 287 288 288 289 289 289 289 287 286 285 283 282 282 283 283 283 282 282 282 282 281 281 282 282 281 281 280 280 279 279 280 279 279 280 280 280 279 279 279 278 278 278 278 278 278 277 277 277 277 276 276 277 276 276 276 276 276 275 275 275 275 275 276 276 275 275 275 275
Wind_Speed
8 6 4 3 6 5 10 10 9 4 4 8 6 6 2 1 0 1 1 2 2 1 1 0 1 1 1 1 4 3 1 3 2 4 1 1 2 3 2 1 1 3 2 3 3 4 5 9 12 13 13 12 11 11 12 11 12 12 11 11 11 12 12 12 12 12 13 13 13 14 14 15 16 17 17 17 17 17 18 18 18 19 19 19 19 19 19 19 20 19 20 20 19 20 19 20 21
5 4 8 12 7 4 6 1 7 1 1 12 7 0 1 5 3 1 2 1 2 2 2 4 5 7 9 9 6 2 2 1 5 0 2 3 5 1 0 1 0 4 1 3 3 4 4 5 11 12 12 11 11 11 11 11 11 11 11 11 11 11 11 12 12 12 12 12 12 13 14 14 15 16 16 16 17 17 17 17 17 18 18 18 19 19 19 19 19 19 20 19 19 20 21 21 19
6 7 2 6 13 8 4 7 5 1 6 13 2 2 2 4 4 1 3 5 4 4 3 2 3 3 2 2 3 1 1 0 1 1 1 2 1 1 1 0 1 2 0 2 3 3 3 5 11 11 12 11 11 10 10 10 10 10 10 10 10 10 10 11 11 11 12 12 12 13 13 14 15 16 16 17 17 17 17 17 18 18 18 18 17 17 18 18 18 18 19 19 19 21 20 19 19
8 8 2 5 4 6 7 6 5 3 10 6 5 2 1 3 3 2 1 1 2 4 1 0 2 1 2 5 1 1 1 0 1 2 0 0 3 1 2 2 1 0 1 1 2 3 3 6 10 10 10 10 10 9 9 10 10 10 10 10 9 10 10 10 10 11 11 11 11 12 12 13 14 15 16 17 17 17 18 18 18 18 18 18 18 18 18 18 18 18 18 19 19 18 19 19 19
12 8 8 9 8 8 6 2 4 1 8 3 6 3 1 3 3 2 1 0 1 1 0 0 2 1 1 3 1 1 1 1 1 4 0 2 1 3 3 2 1 1 1 1 2 3 3 7 8 8 9 9 9 9 9 9 9 9 9 9 9 9 9 9 9 10 11 11 11 11 12 12 13 14 15 16 16 17 17 17 17 17 18 18 18 18 18 18 18 18 18 18 19 19 19 19 19
11 15 10 9 6 5 7 6 8 8 1 2 3 3 3 4 3 3 1 1 3 3 3 0 1 4 1 1 2 2 3 2 1 1 3 1 3 4 4 3 2 1 1 1 2 3 3 5 6 8 9 9 9 9 9 9 9 9 9 9 9 9 9 9 9 9 10 10 10 11 11 11 12 13 14 15 16 16 16 16 17 17 17 17 17 18 18 18 18 18 18 18 18 18 18 19 19
1 7 8 9 6 7 6 6 7 4 3 3 2 1 3 2 3 4 1 1 1 1 3 0 1 1 4 1 1 1 4 0 2 2 5 1 3 4 4 3 3 2 1 2 2 3 4 4 5 7 8 9 9 9 9 8 8 8 8 8 8 8 8 8 9 9 9 10 10 10 11 11 11 12 14 14 15 16 16 16 16 17 17 17 17 17 17 18 18 18 18 18 18 18 18 18 18
3 9 4 12 6 6 6 3 6 1 1 1 1 3 3 4 3 1 1 1 0 1 0 2 1 3 1 2 1 1 2 3 2 0 2 2 4 4 3 3 3 3 3 2 3 3 5 4 5 6 7 8 8 8 8 8 8 8 8 8 8 8 8 8 9 9 9 9 10 11 11 11 12 12 12 13 14 15 15 16 16 16 16 17 17 17 17 17 17 17 17 17 17 17 18 18 18
9 10 1 12 8 4 5 5 2 0 0 1 1 5 4 4 3 2 2 0 0 0 1 2 2 2 1 0 1 2 3 2 4 3 3 4 5 5 4 4 4 4 3 3 3 3 3 4 3 4 5 6 7 7 8 8 7 7 8 8 8 8 8 8 9 9 9 9 10 10 11 11 12 12 12 13 13 14 15 15 15 16 16 16 16 16 17 17 17 17 17 17 17 17 17 18 18
5 6 5 8 3 8 3 3 6 1 0 2 2 1 2 1 1 1 5 2 1 0 1 3 1 4 1 0 2 1 1 2 1 2 2 4 4 5 4 6 5 4 4 3 3 3 3 5 2 3 3 6 6 7 7 7 7 7 7 8 8 8 8 8 8 9 10 9 10 10 11 12 12 12 12 13 13 13 14 14 15 15 15 15 16 16 16 16 16 16 16 16 16 16 17 17 17
4 7 1 11 6 7 5 1 1 1 0 3 3 4 6 1 2 1 0 2 1 1 1 4 4 1 1 0 2 2 4 3 3 5 5 4 4 5 5 4 4 4 4 4 4 3 3 3 4 2 3 4 5 7 7 6 7 7 7 7 8 8 8 8 8 9 9 10 10 10 11 12 12 12 13 13 13 13 13 14 14 15 15 15 15 16 16 16 16 16 16 16 16 16 16 16 17
7 4 5 8 6 5 1 5 0 1 3 2 1 2 0 1 0 2 1 4 0 1 1 1 1 4 2 2 1 1 5 2 5 4 4 3 4 5 5 4 4 4 3 3 2 3 3 3 3 4 4 4 6 6 6 7 7 7 7 7 7 8 8 8 8 8 9 9 10 10 11 12 12 13 13 13 13 14 14 14 15 14 15 15 15 15 16 16 16 16 15 16 16 16 16 16 16
10 2 10 9 2 3 2 4 2 1 1 2 1 1 0 1 2 5 1 2 0 2 2 1 4 1 1 1 2 4 1 7 6 4 3 4 3 2 2 3 4 3 3 2 2 4 4 4 3 3 4 7 5 5 6 7 6 6 7 7 7 7 7 8 8 8 8 8 9 10 11 12 12 12 13 13 13 14 14 14 15 15 15 15 15 15 15 16 16 16 16 16 16 16 16 16 16
8 6 5 7 0 4 3 1 1 2 2 1 2 2 1 1 2 3 4 3 2 1 1 2 1 2 1 1 2 3 5 5 5 4 2 1 1 0 2 3 3 4 3 2 4 4 4 4 3 4 4 4 2 4 6 7 6 6 7 6 6 6 6 7 8 8 8 8 9 10 10 11 12 12 12 13 13 13 14 14 14 15 14 15 15 15 15 15 15 16 16 16 16 16 17 16 16
8 2 7 6 3 2 2 4 7 3 3 1 1 0 0 2 1 2 1 4 1 1 1 1 1 1 1 2 3 2 3 4 5 2 2 2 1 1 1 2 3 3 4 3 3 3 5 4 4 4 4 4 4 4 3 4 7 7 7 6 6 6 5 6 7 8 8 8 8 9 9 10 10 11 11 12 12 13 13 13 14 14 15 15 15 15 15 15 15 15 15 15 16 16 16 17 17
6 8 5 7 3 6 3 3 0 3 2 3 2 1 2 1 2 0 1 0 1 1 0 1 1 0 1 2 1 2 4 5 3 2 1 1 1 1 1 2 3 4 4 4 4 4 4 4 4 5 4 4 4 4 4 4 5 8 7 6 6 5 5 5 6 7 7 7 8 8 9 5 6 6 10 7 11 12 13 11 13 13 14 15 15 15 15 15 15 15 15 15 15 16 16 16 16
1 6 8 5 4 3 4 3 6 4 1 2 4 1 1 1 1 1 1 1 1 0 3 0 1 0 3 3 1 4 6 2 4 3 2 1 1 3 2 3 4 4 4 4 5 5 4 5 6 5 5 5 5 4 4 4 4 7 6 7 7 6 5 4 4 5 5 6 5 6 6 3 3 3 4 3 8 5 10 11 12 13 13 14 14 14 14 15 15 15 15 15 15 15 15 15 15
3 6 5 7 3 3 6 4 7 1 4 3 1 0 3 1 0 0 0 4 4 1 1 3 2 3 3 3 2 2 2 4 4 5 4 4 0 3 4 4 2 7 5 6 5 5 5 6 7 7 6 6 5 4 3 3 3 5 4 4 3 3 3 3 1 0 2 2 4 3 2 1 2 2 3 4 3 4 5 10 10 11 12 13 13 14 14 14 14 14 15 14 15 14 14 6 7
8 4 6 7 4 1 6 2 5 4 2 4 2 0 1 0 1 1 1 3 5 2 2 2 4 6 4 3 3 1 3 5 6 6 6 6 5 6 7 5 5 5 7 7 7 7 7 6 5 6 7 6 4 4 3 3 4 4 5 4 3 3 1 0 1 0 0 1 1 1 0 1 1 1 1 3 3 7 5 9 9 10 11 12 12 13 12 13 14 14 15 14 14 13 7 5 5
1 6 6 0 5 1 3 3 4 3 6 3 2 1 0 1 0 1 1 1 2 3 3 2 3 7 7 4 2 0 3 5 6 7 7 7 6 7 6 7 7 7 8 8 9 4 5 6 8 7 7 6 5 5 5 4 5 4 5 4 3 3 2 1 1 1 1 1 1 1 1 0 1 1 4 5 4 3 4 6 8 8 9 9 11 6 8 9 12 12 13 13 8 5 5 5 6
1 8 3 3 4 3 0 4 2 3 2 4 2 1 1 1 0 1 2 3 4 6 7 7 8 9 9 4 2 1 3 4 5 6 7 7 8 6 8 9 10 9 7 5 4 7 6 6 6 7 6 4 5 6 4 6 5 4 4 4 4 3 3 3 3 2 2 2 2 1 1 1 1 2 2 2 2 3 3 4 3 4 4 4 7 5 5 5 5 6 5 6 5 5 6 6 5
5 3 1 1 2 3 1 1 3 3 2 6 1 2 0 1 0 2 3 3 8 3 4 9 9 8 5 5 5 2 4 5 6 6 9 10 11 11 8 8 7 5 4 5 8 6 6 5 6 6 4 6 6 7 7 5 4 6 5 6 5 4 4 3 3 4 3 3 2 1 0 2 2 2 2 3 2 3 3 3 4 3 4 4 3 5 5 5 5 5 5 5 5 5 5 5 5
8 2 2 1 2 4 0 1 3 4 1 4 1 1 1 1 1 1 4 8 6 6 2 5 8 7 5 2 4 5 6 8 8 10 11 10 10 10 9 8 8 8 7 9 6 6 6 4 6 5 7 6 8 6 5 4 6 6 5 5 5 6 4 4 4 4 4 3 3 2 2 3 2 2 3 2 3 2 3 3 4 3 3 4 3 4 4 4 5 5 5 5 5 5 6 5 5
9 4 1 5 3 3 1 1 1 0 8 1 1 1 1 3 2 1 3 8 12 8 4 3 3 3 3 5 7 10 11 11 12 13 11 13 12 13 11 10 8 5 4 8 6 7 6 8 5 4 7 6 7 5 5 6 6 5 6 4 6 6 4 6 6 5 4 5 3 3 1 1 2 3 3 3 3 2 3 3 3 4 4 4 3 3 5 5 5 5 5 5 6 5 6 6 6
7 5 0 0 2 2 1 1 3 2 3 0 3 1 1 2 1 3 9 10 8 11 4 4 2 2 3 5 7 8 7 7 8 9 6 6 6 7 6 6 5 4 7 9 8 6 8 7 4 6 6 7 7 5 6 7 6 6 5 6 7 5 6 6 6 4 4 4 3 3 2 3 2 2 3 3 2 3 3 3 3 3 3 4 3 5 3 5 6 5 6 6 6 6 6 7 6
3 1 1 2 1 1 0 4 4 3 1 1 2 3 3 2 4 4 16 14 9 4 2 3 2 2 5 8 9 8 9 11 9 7 11 7 5 5 10 8 6 7 10 8 7 8 8 4 5 8 8 9 7 5 7 6 7 7 7 7 7 4 6 6 4 5 5 3 4 3 3 3 3 3 3 3 2 4 3 3 3 4 5 4 3 5 4 4 5 6 6 6 6 6 6 6 6
4 5 4 5 1 0 4 3 1 1 2 1 1 3 1 3 4 8 3 5 3 3 5 1 5 6 7 7 7 7 8 11 12 8 4 5 6 7 11 7 7 11 7 9 9 10 8 4 7 7 7 6 5 7 6 8 6 7 7 6 5 7 6 4 4 4 4 4 5 3 4 3 3 3 3 3 2 3 3 3 4 3 4 4 3 4 3 3 4 5 5 6 6 6 6 5 6
6 8 5 6 2 2 0 3 3 1 1 1 2 2 1 2 1 9 12 2 1 4 6 5 5 7 7 7 6 5 6 9 5 3 9 8 10 9 10 9 11 10 7 12 10 9 6 8 8 7 7 6 6 7 6 7 8 8 6 6 7 6 4 5 5 5 5 5 4 4 3 3 3 3 3 3 3 3 3 4 3 3 5 4 3 4 4 3 3 3 4 3 4 4 6 5 4
2 0 3 2 3 1 4 1 1 1 1 0 1 2 4 2 5 15 6 4 0 4 6 6 6 8 6 5 5 5 8 6 4 5 11 11 7 5 10 10 10 9 8 10 11 6 9 9 7 9 6 5 7 9 9 8 7 6 6 7 6 5 6 5 6 6 6 5 3 4 4 3 3 4 4 3 3 3 3 3 4 4 4 3 3 3 3 3 4 4 4 3 4 4 5 6 5
1 5 3 2 3 1 3 1 1 2 1 3 3 4 6 5 14 10 2 1 1 1 6 7 7 6 6 5 5 6 6 5 7 10 9 9 8 7 9 11 7 9 9 6 5 9 10 5 6 5 5 8 9 8 7 7 7 7 6 6 5 5 6 6 6 6 5 4 4 4 4 4 4 4 4 4 3 3 3 3 4 5 4 3 3 3 4 3 5 5 6 5 5 5 6 6 7
3 1 5 1 1 0 3 1 0 3 1 3 1 2 9 8 8 3 5 3 4 6 7 7 7 6 6 5 5 7 9 7 10 9 9 9 9 7 10 11 8 8 7 7 9 13 7 8 5 6 6 7 6 8 8 9 6 7 6 6 6 5 5 6 6 5 5 5 3 4 4 4 4 4 4 4 4 3 4 4 4 5 3 2 3 2 3 3 2 4 5 7 7 6 5 5 6
3 1 2 3 2 2 4 2 1 1 1 5 2 1 9 9 12 6 5 1 4 7 8 8 7 7 7 5 6 7 10 5 8 9 11 11 9 10 9 13 9 8 10 11 10 8 9 8 6 7 5 7 8 9 8 8 7 6 6 5 5 4 5 6 6 6 5 4 4 4 4 4 4 4 4 3 4 4 4 5 5 3 2 1 2 2 2 4 4 4 2 2 6 7 7 8 6
4 2 1 0 1 4 4 1 2 3 2 3 1 6 7 5 2 1 3 1 1 6 9 8 8 8 7 6 6 6 8 9 7 10 11 10 10 9 10 11 11 11 10 10 10 8 8 9 6 7 9 9 8 8 6 5 5 5 5 4 5 4 6 6 6 4 4 4 4 5 4 4 4 4 4 4 4 4 5 5 5 3 1 1 2 2 2 2 3 4 4 2 1 5 6 8 8
2 2 1 2 0 1 1 3 1 3 1 1 1 2 9 8 10 8 5 2 3 7 12 10 9 7 6 5 6 7 7 9 12 12 13 8 9 8 10 10 11 9 8 9 9 9 10 7 6 7 8 6 6 6 5 5 5 4 4 4 4 5 5 5 4 4 5 5 5 6 4 4 4 4 4 4 4 4 4 5 4 3 2 1 2 2 3 2 1 1 5 3 3 4 5 6 8
1 0 1 1 0 1 3 1 0 1 3 2 0 4 16 17 13 13 9 2 6 11 13 10 7 6 6 6 6 7 7 9 14 13 9 5 7 7 7 8 9 8 8 8 7 8 7 8 5 6 6 6 5 4 3 4 3 3 1 2 4 5 5 4 4 5 6 4 5 5 4 5 5 4 4 4 4 5 5 4 4 3 1 2 2 3 3 2 2 1 3 5 3 3 5 5 6
2 5 2 2 0 1 1 2 2 3 1 3 5 8 11 12 12 13 5 0 6 12 7 7 8 6 6 7 7 7 8 11 14 9 6 6 6 7 7 5 6 6 6 6 7 6 7 7 5 5 6 4 3 3 3 3 3 3 5 2 4 6 5 4 4 6 4 5 5 5 5 5 4 4 4 4 4 4 4 5 4 2 2 1 3 4 4 3 3 4 3 3 7 4 3 3 5
4 3 4 1 0 5 2 3 1 0 1 7 7 7 9 14 15 14 7 1 4 8 11 10 9 8 8 8 8 9 8 14 6 5 6 6 7 7 6 5 6 5 6 5 5 7 7 7 3 9 5 4 5 5 4 5 4 3 2 5 7 4 3 4 5 5 5 6 5 5 4 5 4 4 4 4 5 4 4 4 3 3 2 2 3 4 3 3 2 1 2 2 3 5 4 3 5
2 5 1 0 2 2 1 1 1 1 0 3 1 4 11 14 14 13 3 0 8 10 10 11 11 9 8 7 10 10 11 5 7 9 7 5 5 5 4 4 4 5 5 5 7 8 6 5 7 8 2 4 6 6 6 4 5 5 4 5 4 4 3 3 5 4 6 5 4 4 4 4 4 5 4 4 4 4 5 4 4 4 2 3 3 3 2 2 1 1 1 3 0 2 3 3 6
3 1 1 2 2 6 5 1 2 1 1 8 2 7 13 14 12 10 7 9 6 5 8 7 7 8 8 8 9 10 7 10 7 8 6 5 6 5 3 3 3 5 5 4 4 4 4 5 6 5 5 5 5 5 5 5 4 3 2 2 3 2 1 2 2 2 2 3 3 3 4 4 4 5 4 4 4 4 5 4 5 3 3 2 3 4 3 3 1 1 0 1 5 1 2 1 4
3 2 1 3 2 3 3 1 2 1 1 3 3 8 14 12 7 12 10 8 5 5 6 8 6 8 9 9 7 6 7 8 8 7 6 6 5 4 4 4 4 3 3 3 4 4 4 4 5 5 5 4 5 5 6 5 2 3 1 1 1 1 0 0 0 1 1 1 4 3 4 4 4 5 4 4 4 4 4 5 4 3 3 3 4 4 3 3 1 0 0 0 1 3 3 2 2
1 1 1 1 1 1 2 3 4 2 0 0 5 7 9 4 5 3 0 1 3 5 3 6 8 8 6 5 5 7 10 8 8 8 6 4 4 4 3 3 3 3 2 2 3 3 3 4 4 4 4 4 4 4 5 3 3 2 2 2 2 1 1 1 2 4 3 3 3 3 6 3 4 4 3 3 4 4 4 3 3 3 3 3 3 3 4 3 1 1 1 0 1 1 3 1 2
4 1 0 0 1 2 3 4 6 7 2 3 4 6 3 3 5 9 9 6 4 2 2 8 8 5 5 7 11 7 8 7 8 9 7 5 5 5 3 3 3 2 3 3 3 3 3 4 3 2 3 3 4 4 4 4 5 5 3 3 3 2 4 2 4 5 3 2 3 2 2 1 2 3 3 3 3 3 4 3 3 3 3 2 3 4 3 2 1 1 2 2 1 2 1 1 3
1 0 1 0 2 1 2 6 3 2 1 2 1 1 8 6 5 5 3 3 8 6 4 8 6 6 5 8 8 7 8 7 6 7 6 5 4 3 2 1 1 1 2 2 3 3 3 2 2 1 2 2 2 3 4 4 4 4 5 6 5 4 4 3 2 1 2 2 1 3 3 2 1 3 3 3 3 3 3 2 3 3 3 3 2 3 3 3 2 1 1 1 2 1 2 1 3
2 0 3 2 2 3 2 2 2 3 2 2 3 2 2 9 11 4 4 3 7 7 8 8 7 6 7 7 7 7 8 6 6 7 6 5 4 4 2 1 1 1 2 2 2 2 3 3 3 3 2 1 1 1 3 4 5 4 4 4 4 4 5 5 2 2 1 0 2 3 3 3 1 1 3 2 2 2 2 2 2 2 2 2 2 3 3 1 0 0 1 2 2 2 3 3 3
1 1 2 1 1 2 2 1 0 1 2 7 3 3 1 5 9 4 2 2 6 10 9 8 8 7 7 7 8 8 8 7 7 7 6 6 6 5 4 1 0 1 1 1 1 1 1 1 2 2 4 3 3 1 2 4 4 5 5 4 4 4 3 3 1 0 1 1 2 3 3 4 3 3 1 2 1 1 1 1 2 2 1 2 1 2 1 1 2 2 1 1 2 2 3 2 1
1 1 3 3 3 3 1 1 0 2 1 6 0 3 1 9 7 6 3 1 7 10 11 10 9 8 7 7 7 7 5 5 6 6 5 5 4 4 3 2 2 0 1 1 0 0 1 2 3 4 4 3 3 3 0 3 3 3 4 4 4 4 2 0 0 1 1 1 1 2 3 3 5 4 4 3 2 0 1 0 1 1 2 1 1 2 1 1 1 2 2 3 2 2 2 3 3
1 1 0 1 4 2 2 5 1 2 1 5 2 2 0 5 7 7 4 7 8 7 5 5 5 6 7 7 7 5 5 6 6 6 5 5 3 3 1 3 2 1 0 0 1 1 1 3 3 4 3 3 3 3 2 1 3 4 4 4 5 4 3 2 1 0 1 1 2 2 3 3 3 5 4 4 3 2 1 0 1 1 1 1 1 1 2 2 2 2 2 2 2 3 2 2 3
0 0 0 4 1 5 1 3 4 1 4 2 2 1 0 2 7 6 9 4 4 6 8 9 8 9 9 7 7 7 6 6 6 5 5 4 3 3 1 3 3 2 0 1 1 1 2 2 3 3 3 4 3 3 3 3 2 2 3 4 4 4 3 3 2 1 1 1 1 1 1 3 4 4 3 4 4 3 2 1 1 1 0 0 1 1 1 1 1 1 1 2 2 2 2 2 2
1 1 5 4 5 6 3 4 2 2 3 1 2 0 2 9 13 9 7 8 8 8 8 9 9 9 8 6 8 7 6 5 6 7 5 5 6 6 5 5 3 2 3 0 0 1 1 2 3 3 2 3 3 3 3 2 3 1 1 3 3 3 4 4 3 2 2 2 3 3 4 4 3 5 5 4 4 4 2 3 2 2 1 0 0 0 1 1 1 1 1 2 2 2 2 2 2
1 1 2 2 2 4 1 4 2 5 4 3 0 1 3 6 10 11 16 15 9 7 9 7 5 7 7 7 6 6 6 7 7 7 7 7 7 6 5 5 4 4 3 2 1 1 1 2 2 4 1 1 2 2 2 3 3 1 1 2 3 4 4 4 3 4 3 3 4 4 4 4 4 2 1 3 2 2 2 2 2 2 1 0 0 0 0 0 1 1 1 1 2 2 1 2 3
0 1 1 3 5 0 2 2 3 4 5 4 4 1 6 2 3 0 9 6 5 5 5 5 6 6 5 4 3 4 5 6 7 7 8 8 8 6 6 5 5 4 4 3 3 2 2 2 2 3 3 2 2 2 2 3 2 2 2 2 3 3 4 5 4 3 5 5 3 5 3 3 5 1 2 1 2 3 3 3 3 3 3 2 1 1 1 0 0 0 0 1 1 2 2 2 3
1 1 3 4 1 4 2 3 2 3 4 6 1 6 4 6 5 9 4 7 9 5 7 4 8 5 4 4 6 8 9 9 7 7 7 7 6 6 5 5 5 4 4 4 4 3 3 3 3 3 3 1 1 1 1 1 1 1 2 4 4 4 4 5 5 4 3 4 4 5 4 3 3 3 1 2 2 3 3 4 4 4 3 3 2 2 1 1 0 0 0 0 2 1 1 2 3
1 2 1 1 1 4 4 1 0 1 3 8 1 8 7 9 8 5 7 4 7 2 4 3 7 5 2 6 7 8 9 7 7 9 8 8 6 6 6 6 5 4 4 5 5 5 4 4 3 3 2 1 1 0 0 1 1 3 3 3 4 4 5 5 6 5 5 4 4 4 4 3 3 3 3 2 3 3 3 3 4 4 4 3 3 3 2 2 1 1 1 1 3 1 1 3 3
1 1 3 1 2 1 2 2 2 4 1 8 2 6 8 6 10 4 9 5 8 5 6 4 5 3 6 9 8 9 10 9 6 6 6 6 6 7 6 5 5 6 6 5 5 4 3 4 4 4 3 3 1 1 1 1 2 3 3 3 3 3 5 5 5 6 4 6 4 4 3 5 3 2 3 2 3 3 4 4 4 4 3 4 4 3 3 2 2 2 1 1 1 1 2 2 2
1 2 0 0 0 0 2 2 3 2 4 6 7 4 7 5 9 6 7 4 7 7 3 3 6 7 10 9 10 8 6 5 6 8 7 8 8 8 8 7 6 5 5 5 4 3 2 2 2 4 5 3 3 2 2 1 1 2 2 3 4 4 4 5 4 5 4 6 5 4 4 3 3 2 3 3 3 4 4 4 4 4 4 4 3 4 3 3 3 3 2 2 2 1 2 4 4
1 0 1 1 1 1 2 2 2 3 5 4 9 5 9 6 7 6 8 8 6 7 5 7 10 10 9 9 9 8 8 9 8 8 9 9 9 8 8 8 8 7 6 5 4 3 4 3 4 3 2 2 3 3 3 3 2 2 3 3 3 3 4 5 4 5 6 5 4 4 4 4 3 2 3 3 4 4 4 4 3 4 4 3 4 3 3 3 3 3 3 5 3 3 3 4 4
1 1 1 1 0 2 2 1 2 2 3 2 1 9 9 8 7 5 10 9 6 5 7 7 8 8 7 7 8 7 7 8 9 10 10 10 9 7 7 5 5 4 4 4 5 6 5 4 4 4 5 4 4 3 3 3 3 2 3 4 4 4 4 4 5 5 6 4 4 3 3 3 3 3 3 4 4 4 4 3 4 4 4 4 4 4 4 3 4 4 4 3 4 3 3 4 3
5 8 7 8 6 2 1 8 2 1 1 4 3 10 10 12 6 10 9 7 4 5 5 8 8 9 9 9 9 9 9 10 10 10 9 9 8 7 5 4 3 4 5 6 5 4 4 5 4 4 3 4 5 4 4 4 3 2 3 4 4 3 4 4 6 5 5 4 4 4 3 3 5 2 3 4 4 3 3 4 4 4 4 4 4 3 3 3 3 3 3 2 3 3 3 4 3
Wind_Direction
46 54 64 80 47 99 54 8 67 332 61 62 85 8 96 357 164 49 354 323 42 314 288 348 81 38 202 195 155 148 198 109 203 125 192 237 285 294 234 242 73 60 47 343 346 9 7 351 3 356 359 6 8 7 7 11 12 15 18 21 24 26 28 28 29 30 32 31 27 30 30 28 28 30 31 30 30 29 28 27 26 27 26 26 26 27 27 25 26 25 25 26 26 25 25 25 27
44 36 72 59 20 62 18 47 91 17 352 82 19 112 357 301 39 41 116 148 191 178 212 101 85 75 55 85 113 128 31 355 172 192 275 239 300 306 263 229 285 96 19 336 343 3 6 336 6 358 358 358 5 7 7 8 13 15 16 20 24 27 27 26 28 30 30 30 29 29 29 27 27 29 29 30 30 30 28 28 29 28 28 26 25 24 25 27 25 24 24 23 24 24 27 27 25
37 21 351 38 41 59 105 36 80 19 99 79 341 1 311 55 99 219 135 132 163 138 121 101 112 67 44 17 25 87 226 198 219 244 241 319 67 266 257 262 238 115 31 320 338 343 3 347 13 2 355 359 4 4 6 9 12 14 15 19 23 25 26 29 28 28 27 28 28 26 29 28 25 26 29 28 29 29 28 28 28 28 28 28 28 28 28 27 27 26 25 24 24 26 26 24 24
70 31 82 75 56 34 51 33 66 109 83 114 82 324 42 157 201 196 261 255 138 111 167 265 65 247 104 55 142 110 54 34 203 155 49 262 193 229 221 162 168 274 2 328 325 329 348 12 11 2 359 359 356 5 5 8 11 13 16 19 19 23 24 25 25 25 25 25 25 27 25 26 26 25 25 25 27 26 27 26 26 26 27 27 27 27 28 27 28 27 26 26 27 26 25 24 23
66 43 44 87 100 17 83 114 116 85 77 194 132 261 283 226 195 219 264 271 243 117 324 96 77 326 214 135 181 105 218 247 299 182 223 252 245 208 177 157 58 74 60 324 325 328 341 6 10 2 357 356 358 360 5 8 10 13 15 19 18 20 21 24 23 22 22 23 24 24 26 24 25 23 24 24 23 24 25 25 25 25 26 26 26 27 28 28 27 27 26 26 27 26 25 25 24
79 70 24 68 69 176 62 49 31 51 65 147 101 204 231 228 188 203 222 228 240 218 220 70 178 195 35 319 173 113 198 75 191 242 162 243 199 181 171 139 111 102 257 309 322 300 314 340 12 359 355 357 358 2 3 8 10 13 16 16 18 18 19 19 19 21 19 22 22 24 25 24 22 23 23 22 23 25 24 25 25 25 26 26 27 27 27 28 27 27 27 27 27 27 26 25 26
69 49 13 53 49 51 97 66 63 60 3 154 170 178 218 234 206 115 146 57 263 179 189 215 109 90 66 300 2 258 196 135 91 218 169 146 148 156 156 135 133 188 260 287 313 308 294 359 1 1 357 354 358 359 1 6 7 12 14 15 14 16 16 15 15 17 19 20 22 24 24 24 24 20 20 22 20 21 24 24 25 24 25 24 25 26 26 26 26 26 26 25 26 26 26 27 26
50 96 351 79 49 56 39 45 58 167 17 134 195 144 224 199 162 114 230 107 196 117 318 208 228 116 238 56 152 270 321 232 196 147 210 122 147 156 147 139 144 227 259 288 291 291 308 339 4 359 351 352 352 355 358 1 6 9 11 11 10 11 10 12 11 12 15 17 20 21 23 24 24 23 20 21 21 21 22 24 25 24 24 25 25 25 26 25 26 26 25 25 25 26 26 27 27
20 78 279 71 53 53 57 49 40 209 340 6 264 238 239 206 185 140 35 250 116 332 335 291 237 90 223 51 178 263 284 259 269 246 181 149 150 172 155 164 162 220 251 263 285 289 304 313 353 352 344 346 346 347 349 354 1 4 6 7 8 5 7 8 10 12 14 17 18 19 20 21 22 22 23 19 24 21 22 23 24 24 23 24 24 24 25 25 24 25 26 26 25 25 25 27 27
48 69 25 98 147 69 60 355 69 270 230 258 215 256 239 256 185 126 144 65 171 49 258 256 269 108 177 145 324 11 127 321 242 115 178 178 167 157 180 196 191 185 224 249 262 273 284 292 309 329 326 332 340 337 339 346 353 0 3 6 5 8 5 6 8 10 14 16 18 19 20 21 22 23 22 21 22 23 21 22 24 23 24 23 23 23 23 23 23 23 24 26 26 25 25 25 27
45 14 129 75 34 75 67 68 15 352 302 319 295 248 233 270 155 35 355 148 283 186 261 232 26 118 102 262 205 246 300 273 131 190 192 188 152 171 197 210 212 189 201 229 237 262 278 296 292 274 312 312 327 328 329 335 342 351 358 1 5 7 8 8 7 10 14 17 19 21 21 21 23 22 22 20 20 21 20 20 22 22 23 22 23 23 23 23 23 23 24 24 25 25 25 25 24
68 19 32 95 65 142 182 132 289 268 300 352 236 296 259 185 353 92 271 96 297 353 102 317 192 156 53 332 321 294 313 255 197 209 174 149 166 198 198 200 211 229 212 232 273 258 266 286 301 288 279 287 300 310 313 320 330 341 349 355 359 5 9 9 8 10 14 17 20 21 22 22 22 22 21 22 18 20 20 17 18 21 21 22 22 22 22 22 23 23 24 24 24 23 24 23 22
101 130 88 78 128 90 159 93 209 235 336 283 206 281 54 359 208 151 151 127 334 67 351 294 145 103 51 121 250 315 292 229 223 215 166 164 193 212 243 217 222 232 230 236 239 253 257 262 274 289 265 265 280 285 297 308 317 329 336 344 351 358 3 8 8 10 12 15 17 18 22 23 20 21 20 20 18 18 19 16 13 18 20 21 21 21 21 21 23 22 22 22 22 21 20 19 19
103 161 122 108 59 101 124 190 337 151 270 241 260 277 351 135 231 190 131 69 325 91 252 197 114 144 107 10 325 325 250 251 221 212 126 101 63 37 269 255 245 256 264 241 233 249 255 250 259 268 277 293 276 296 302 296 297 312 324 330 338 344 354 360 7 9 10 13 14 16 22 22 20 17 21 18 19 17 18 15 11 14 19 18 19 19 19 20 20 20 20 20 20 19 17 15 13
106 140 84 105 84 79 219 118 199 159 210 200 254 251 314 313 102 188 146 120 2 210 298 246 204 96 250 121 289 251 260 262 222 184 108 64 43 21 320 300 290 290 290 271 261 269 254 253 254 259 262 262 263 266 272 290 294 301 312 317 321 326 340 354 4 7 9 8 13 14 21 22 20 15 20 15 17 15 14 14 10 11 16 17 17 17 16 17 17 17 17 17 17 17 14 11 8
128 97 79 103 140 132 222 155 89 115 216 164 259 93 64 324 206 212 263 189 170 301 333 233 12 161 177 140 206 228 268 285 227 119 103 81 12 356 346 300 295 285 277 268 259 249 255 258 251 250 248 247 247 246 259 271 286 284 291 305 303 316 332 348 360 7 9 8 11 15 18 30 15 4 16 10 16 11 8 14 11 10 13 15 13 13 13 13 13 14 15 14 15 14 12 8 5
82 83 64 58 125 144 198 154 151 192 239 252 291 25 169 272 268 204 192 44 110 329 355 239 172 354 172 201 231 268 291 240 121 116 112 226 6 304 326 296 285 293 271 260 243 247 240 242 247 241 238 240 241 244 253 263 268 273 300 304 307 312 329 335 358 14 11 359 19 13 26 21 16 5 352 350 15 4 6 12 12 10 12 13 12 9 9 9 10 10 11 12 12 11 10 6 359
53 52 111 59 162 122 188 170 187 152 127 230 198 247 118 155 327 276 210 6 40 346 9 312 313 268 206 240 275 256 283 127 139 138 184 217 226 261 270 265 272 252 259 269 260 243 238 235 235 233 240 239 235 239 244 253 261 271 279 276 297 299 324 349 16 72 7 355 4 19 31 7 22 350 348 1 8 8 352 10 10 11 11 12 11 8 7 6 8 8 7 9 9 8 6 4 349
71 113 64 139 196 278 135 200 183 128 196 181 228 264 159 185 148 299 60 336 16 357 308 346 316 299 300 278 330 47 125 137 151 172 182 206 213 223 232 246 252 267 270 255 261 240 229 234 232 234 233 234 231 239 243 250 250 256 265 266 275 299 309 279 224 7 354 333 337 5 18 352 34 12 338 20 22 14 2 10 9 9 10 9 10 7 6 3 6 5 4 6 5 3 0 345 345
8 109 83 357 205 155 208 167 185 234 147 139 141 265 81 266 132 281 68 291 3 252 254 314 274 263 263 274 326 43 148 171 172 174 195 210 215 218 229 237 243 241 245 238 245 255 227 231 231 229 232 228 219 234 239 244 247 247 254 260 266 269 277 257 240 259 288 297 301 303 355 330 38 3 5 14 24 4 347 357 2 3 359 358 4 6 357 355 5 359 357 1 1 352 346 343 340
321 66 129 157 186 115 322 186 246 224 167 146 143 233 54 8 164 87 152 360 293 259 224 206 228 233 245 251 247 208 187 180 198 196 202 216 225 226 222 222 220 230 231 269 272 256 238 231 234 236 232 226 217 231 230 234 235 245 251 253 253 253 260 259 254 261 266 274 282 284 289 356 357 23 14 9 15 354 352 356 351 353 343 345 356 355 352 344 359 352 349 350 350 348 344 341 341
79 86 229 131 143 71 262 232 150 150 204 102 147 97 216 242 49 90 128 209 253 213 242 210 230 235 224 213 218 187 193 203 206 207 213 213 216 226 232 249 258 257 273 272 252 259 251 235 230 237 217 226 218 218 221 229 219 232 240 237 240 252 242 253 259 254 262 255 253 265 250 359 350 4 4 0 355 1 349 346 340 338 345 336 349 348 343 351 346 349 347 343 339 337 335 330 330
92 344 17 86 214 129 255 178 195 168 107 109 103 188 83 43 309 215 160 212 237 224 208 195 217 235 226 170 149 189 201 208 209 213 213 221 229 233 233 232 234 243 238 248 261 262 265 240 230 221 223 221 227 223 230 231 227 225 228 232 222 248 227 244 250 243 243 241 238 237 260 294 321 331 334 340 333 359 334 336 335 335 331 331 335 351 343 342 343 341 342 337 329 335 333 331 327
91 120 34 29 70 102 301 200 153 115 107 159 178 102 66 73 328 66 236 241 240 249 223 234 255 264 162 164 192 194 201 204 213 216 212 215 216 224 224 231 238 260 288 265 262 255 262 254 227 207 229 221 231 213 221 224 229 222 226 228 225 231 212 229 236 231 233 236 229 226 216 203 259 306 307 323 307 339 319 322 323 333 341 329 322 352 346 343 341 341 336 333 338 333 332 330 327
73 81 291 157 51 335 314 143 61 74 51 151 77 67 302 182 233 8 262 249 251 252 232 261 265 172 187 204 205 213 215 227 235 235 245 249 243 256 268 261 262 263 261 257 260 268 257 251 209 219 225 225 227 199 218 223 222 225 226 225 230 223 222 226 227 226 229 233 230 222 213 238 260 267 285 285 329 311 312 326 335 329 332 325 340 333 356 340 340 342 338 332 333 333 331 328 328
62 124 117 72 65 324 283 60 35 46 83 15 46 324 295 269 231 260 254 262 242 258 220 221 148 170 206 216 213 206 215 220 228 240 233 240 260 270 261 249 251 253 243 258 267 257 260 238 220 225 220 220 217 192 222 218 219 220 223 223 225 225 229 227 218 229 232 218 237 224 223 219 230 242 266 283 308 301 313 322 326 326 324 312 340 326 338 341 335 336 336 335 334 332 329 324 330
128 100 97 99 289 297 354 121 346 313 84 325 79 320 317 332 38 287 306 259 311 173 212 183 172 215 223 223 225 222 216 225 221 231 279 261 254 238 253 251 243 246 248 255 253 252 251 235 237 230 225 222 198 212 216 224 212 223 224 220 221 226 228 223 223 228 231 221 227 219 223 225 222 232 241 266 277 276 299 310 304 313 314 312 320 304 309 330 328 328 329 329 331 328 322 317 323
105 131 96 32 353 93 254 61 5 332 359 53 108 270 267 316 92 238 251 327 5 180 218 211 205 232 233 233 232 234 231 241 244 232 243 245 239 228 242 234 240 243 235 245 244 247 256 241 242 233 225 215 204 220 221 223 219 223 224 212 223 226 217 222 228 224 231 226 222 217 221 223 229 231 224 250 246 269 277 287 289 304 292 299 309 300 311 319 315 305 311 309 306 304 309 312 301
157 299 70 317 1 83 1 100 307 2 359 183 144 319 297 170 223 238 271 343 338 203 220 226 233 240 247 252 254 250 234 247 240 235 238 237 244 227 239 235 231 238 237 237 245 251 244 243 235 241 216 210 211 220 217 223 222 223 217 217 222 214 216 220 226 226 230 230 214 217 219 219 221 225 224 229 249 245 258 278 289 280 278 288 302 304 313 324 331 331 320 316 308 306 315 318 313
114 34 122 23 1 17 351 319 4 72 287 5 339 350 281 267 243 264 311 34 46 241 242 239 242 249 256 257 254 260 257 255 244 235 239 241 240 235 239 248 224 230 245 240 248 249 242 239 228 235 208 213 217 222 221 225 224 222 220 222 217 209 214 216 228 226 228 228 221 219 219 221 221 221 218 237 225 248 260 264 272 286 279 283 302 310 317 325 328 332 324 332 327 334 328 324 329
97 272 59 84 19 267 300 32 301 95 321 13 46 237 289 272 281 271 309 189 168 223 237 240 244 252 255 255 256 256 261 231 242 249 250 245 244 241 238 256 241 235 248 256 235 242 245 240 227 233 218 219 221 221 221 225 222 219 219 219 217 210 214 217 228 226 225 230 215 228 221 224 225 222 216 222 238 225 256 270 270 266 283 290 316 315 314 306 311 315 322 332 326 327 319 315 322
37 65 313 318 82 277 294 356 147 127 353 16 80 304 246 277 282 306 318 162 185 233 241 244 246 248 252 256 257 258 260 256 253 255 250 249 240 243 235 249 243 239 234 241 246 249 252 243 227 234 225 223 220 223 222 226 223 219 218 219 215 213 222 224 225 224 225 223 219 233 226 228 229 226 223 211 234 235 240 258 260 270 274 300 306 317 332 328 325 314 297 308 328 327 337 327 330
353 66 241 312 37 267 352 56 354 11 99 7 139 248 325 300 259 289 340 113 249 250 262 254 248 250 253 253 254 262 279 275 266 255 252 243 243 236 240 246 245 236 237 242 244 248 251 249 230 229 231 225 227 226 227 227 221 222 217 221 217 210 222 231 229 224 226 227 224 233 231 231 233 230 226 213 222 243 241 247 258 248 244 265 291 295 316 303 330 323 318 313 289 306 323 318 321
337 24 113 205 136 329 312 311 51 23 75 232 6 206 242 248 281 286 285 172 214 244 253 256 251 246 248 258 259 260 261 272 269 259 253 240 249 239 239 243 248 246 242 241 242 240 246 254 235 232 242 236 231 226 222 224 220 217 217 212 217 222 229 231 230 214 233 226 226 238 228 231 236 231 227 220 223 238 238 244 260 246 240 248 279 291 287 288 277 323 317 317 343 327 321 323 320
236 322 2 321 315 216 254 5 277 104 17 208 323 260 268 270 278 281 280 215 208 232 235 246 258 258 259 255 256 257 259 260 260 256 260 261 255 252 246 246 251 249 245 242 244 244 252 257 248 245 241 236 233 224 210 200 192 196 185 206 235 247 244 230 215 231 232 224 232 237 231 232 239 232 228 221 225 243 250 251 257 250 226 256 291 304 303 308 323 352 337 314 318 294 287 299 300
209 163 170 156 231 257 215 247 283 176 205 263 220 238 272 284 286 285 298 284 197 242 266 278 264 262 260 251 255 254 251 260 256 268 272 263 253 259 258 254 252 248 247 244 242 240 244 254 248 262 245 229 210 192 176 172 164 197 225 261 275 248 241 234 223 232 226 230 237 232 234 238 239 236 228 223 230 244 251 256 262 250 242 254 300 309 309 321 327 335 328 328 324 323 290 294 317
102 87 93 133 198 286 285 294 282 23 301 242 233 254 268 277 273 275 277 332 245 258 258 252 254 252 251 253 249 252 249 246 276 284 272 266 266 265 268 267 262 265 252 242 244 244 236 238 232 249 232 194 189 189 188 180 187 224 240 220 234 237 211 212 232 231 226 236 235 232 237 239 240 242 238 219 236 243 249 262 262 268 222 238 258 269 278 295 269 251 320 313 320 342 326 334 330
108 102 76 359 168 275 202 115 356 292 176 297 34 302 269 260 272 269 304 77 249 229 240 251 251 242 248 247 257 252 252 289 291 295 288 291 288 288 285 268 250 260 253 211 227 239 230 223 224 246 207 190 199 199 194 181 194 183 167 199 199 220 215 213 242 227 231 234 233 235 238 241 238 242 243 223 238 233 254 259 255 259 221 233 241 251 263 269 327 4 10 341 348 350 309 335 332
34 124 164 357 295 250 286 10 338 288 105 267 6 337 288 280 268 275 238 224 240 221 213 230 225 246 244 244 248 261 277 272 292 271 284 284 293 298 298 283 262 237 270 257 257 261 246 231 232 239 226 204 210 197 178 208 211 209 171 194 167 233 254 231 224 235 221 230 238 235 239 237 235 247 239 231 233 237 239 247 255 242 223 216 255 272 261 290 264 283 111 338 323 326 269 323 355
88 53 28 260 260 24 321 296 13 2 158 281 350 326 289 287 279 257 254 209 252 246 237 248 222 233 233 232 229 243 256 267 272 276 289 302 294 292 330 349 333 305 285 283 276 259 257 241 239 231 229 213 205 204 202 211 161 182 169 150 176 118 200 77 13 326 312 315 279 241 246 230 229 244 236 225 233 239 229 237 250 237 237 199 217 261 274 277 273 231 155 175 155 340 358 309 43
357 118 123 272 346 311 194 272 306 267 331 120 322 291 294 317 327 299 22 266 280 291 297 262 257 241 256 285 279 226 241 242 261 282 284 293 327 317 307 296 316 357 340 318 302 278 251 252 244 233 229 217 216 206 208 178 142 114 91 72 77 56 52 18 358 296 258 252 278 271 256 212 226 242 241 228 227 240 233 235 237 243 231 213 204 236 265 263 239 202 195 181 178 233 313 322 328
326 232 116 283 143 274 322 328 5 14 336 30 48 346 315 302 283 245 276 338 306 287 281 260 251 247 234 246 248 248 245 240 237 250 261 276 280 296 318 331 2 344 356 329 307 289 281 277 278 263 242 229 216 213 192 170 188 177 156 177 246 244 271 283 267 253 281 250 235 257 323 242 223 238 247 242 233 239 246 231 226 234 237 215 207 230 254 289 269 226 215 203 233 195 210 354 300
57 239 192 169 150 105 45 0 36 350 10 345 10 80 276 322 307 267 305 325 284 297 271 263 268 255 232 236 240 240 236 249 249 256 267 275 264 277 282 318 319 333 320 318 329 349 354 333 306 278 256 250 228 208 181 173 177 184 194 201 205 212 223 255 242 264 237 271 301 301 302 318 218 234 266 243 241 239 245 232 213 219 225 207 212 216 253 252 257 219 186 171 217 177 136 243 282
264 4 131 110 49 40 20 80 105 232 264 292 50 117 227 310 290 274 296 310 286 300 278 264 256 249 241 237 238 236 235 229 226 226 230 231 239 216 212 252 284 283 289 318 345 6 20 2 27 41 35 14 341 223 171 182 179 188 191 207 208 212 208 238 237 285 255 274 334 311 323 315 317 230 265 275 241 241 233 235 214 219 220 208 208 223 241 255 189 204 196 205 196 184 181 215 269
239 267 201 102 112 141 102 71 189 245 7 294 339 346 281 258 265 314 354 287 282 265 257 257 252 246 242 244 241 238 233 222 207 202 213 214 216 222 219 231 283 301 318 342 348 342 347 12 52 52 46 23 4 359 179 197 187 180 188 182 212 226 212 234 244 314 14 13 332 332 350 332 335 346 312 294 296 238 236 231 203 212 211 221 224 225 227 206 218 223 224 198 216 219 190 204 209
268 152 96 93 76 76 80 90 14 326 36 282 305 359 210 285 276 333 339 281 268 251 243 241 238 236 232 234 247 244 239 228 223 221 211 217 217 220 221 242 286 259 292 295 314 27 49 53 52 53 29 11 357 9 161 185 191 166 168 183 200 229 200 213 94 337 35 21 345 340 335 352 353 357 5 1 353 320 231 226 197 202 213 207 215 218 205 195 211 214 217 220 209 228 209 200 208
23 153 177 8 40 29 32 67 85 50 351 260 259 307 125 297 273 229 150 220 206 236 284 273 273 263 255 244 239 232 213 206 206 217 232 230 239 233 270 208 212 278 308 229 27 38 52 63 64 64 15 3 8 13 42 132 184 178 188 188 195 216 201 172 184 348 40 43 26 351 3 346 6 9 4 10 19 13 41 173 167 194 189 193 205 204 211 213 216 211 219 207 211 209 222 203 243
174 346 74 11 348 5 45 341 29 90 281 259 262 284 322 194 293 283 238 271 226 196 213 227 230 230 225 221 226 227 214 204 202 205 226 231 246 254 226 233 219 218 325 44 29 30 55 61 79 79 28 14 359 3 38 46 97 188 200 186 194 205 177 168 173 211 202 151 146 56 1 38 23 14 22 15 18 14 40 64 75 105 136 154 226 207 216 204 206 197 194 209 224 212 209 216 225
61 35 31 60 284 22 293 15 313 198 199 238 328 204 359 231 232 253 282 253 257 218 222 219 214 220 222 228 220 210 208 206 201 205 205 211 206 206 211 224 228 220 195 229 135 86 100 81 91 95 40 4 360 356 41 43 58 44 195 195 199 175 174 164 161 171 187 149 143 100 72 65 27 37 5 13 357 360 14 50 57 65 59 329 198 170 224 195 195 186 210 225 236 243 224 214 223
53 82 112 74 14 35 277 276 229 296 298 259 336 276 262 264 281 243 245 258 239 240 229 237 229 233 229 222 216 207 210 207 209 203 204 203 204 205 206 207 208 218 224 221 213 172 164 115 108 107 82 23 3 19 21 56 41 28 59 161 176 167 160 149 153 142 155 141 133 115 110 111 95 89 8 15 317 333 38 57 82 77 93 130 127 166 184 206 179 192 205 230 256 248 222 224 241
167 167 108 182 133 154 286 251 294 264 241 278 285 53 233 45 246 215 224 249 300 274 262 255 259 252 254 276 264 251 236 230 218 213 210 207 207 202 202 205 209 211 215 213 214 202 175 149 128 113 93 32 30 7 22 57 45 28 62 95 123 128 126 112 117 125 132 121 120 112 112 108 97 86 68 340 8 51 56 65 68 70 56 54 61 55 62 89 158 171 195 243 259 259 241 242 255
219 179 92 72 239 132 219 204 168 290 343 337 239 212 192 204 264 281 272 281 280 272 271 268 264 255 266 273 238 223 219 220 212 219 226 225 216 210 209 209 207 204 207 210 206 197 185 172 147 137 138 94 22 30 25 67 70 69 64 93 94 107 109 108 100 95 95 115 127 119 116 104 106 109 62 74 42 67 70 74 69 63 62 64 59 71 74 83 112 136 340 301 309 252 259 262 262
237 93 192 206 144 98 88 55 59 87 48 255 191 312 284 296 307 298 343 337 281 308 281 258 256 270 288 246 239 231 228 222 215 217 216 220 220 224 214 202 198 197 199 206 205 197 191 172 149 143 121 99 86 76 85 83 111 95 76 89 101 105 117 123 124 116 113 105 108 110 110 115 108 91 81 81 78 66 72 82 76 65 59 60 63 55 62 67 92 74 13 353 328 309 293 282 283
58 60 230 167 149 111 129 270 338 63 128 267 56 253 308 35 296 322 341 340 293 297 261 260 275 278 254 243 236 232 227 225 228 230 229 225 220 214 211 212 201 193 195 202 209 207 200 180 167 152 154 144 159 130 120 123 138 116 108 97 91 112 120 118 119 123 124 109 96 101 106 91 88 85 97 84 85 76 69 69 74 65 59 57 57 53 49 52 63 46 5 301 264 283 303 304 289
107 171 212 129 238 27 340 93 323 332 292 289 304 289 259 188 258 328 304 317 295 289 295 301 264 247 240 243 244 242 247 251 238 230 227 229 224 219 205 206 206 205 205 199 190 177 172 173 182 166 168 177 157 146 118 93 135 129 122 122 124 114 112 112 114 115 116 109 114 114 105 117 100 91 93 87 79 73 72 64 67 65 59 55 51 48 42 43 49 47 24 10 349 347 339 330 318
59 314 21 295 114 186 100 206 179 118 277 28 292 24 281 194 222 211 263 258 262 280 304 246 241 235 234 235 239 233 227 225 228 226 224 222 223 216 205 199 197 199 196 197 181 165 177 184 166 162 130 125 121 127 133 130 131 133 119 103 90 108 113 117 122 123 112 113 124 119 123 107 110 95 90 90 82 79 73 74 67 73 66 62 57 49 47 41 43 46 27 17 3 11 360 338 320
6 75 327 355 327 222 86 3 152 194 191 179 244 320 283 250 216 188 247 259 249 237 256 261 258 255 249 248 243 238 232 229 225 224 222 220 219 216 214 210 202 189 187 176 179 182 186 173 180 179 164 161 148 148 139 146 131 139 129 126 127 121 113 113 108 107 110 117 120 119 116 129 112 78 93 82 79 76 72 80 73 60 58 49 44 36 29 34 35 19 9 6 354 6 348 323 316
172 160 194 175 122 124 129 270 22 69 107 240 126 267 269 277 168 213 240 259 261 245 236 268 267 256 248 242 237 227 233 230 227 226 222 220 217 213 210 203 195 181 188 189 194 175 173 187 190 182 169 170 159 158 151 146 142 146 141 133 126 118 118 112 108 110 111 118 117 110 124 101 93 81 83 84 80 75 68 65 62 51 49 44 41 38 24 34 33 14 355 355 348 343 335 319 322